Time,TemperatureF,DewpointF,PressureIn,WindDirection,WindDirectionDegrees,WindSpeedMPH,WindSpeedGustMPH,Humidity,HourlyPrecipIn,Conditions,Clouds,dailyrainin,SoftwareType,DateUTC
2013-02-22 00:10:00,20.6,17.0,30.23,SW,231,9.0,15.0,87,0.00,,,0.00,weatherlink.com 1.10,2013-02-22 06:10:00,
2013-02-22 00:25:00,20.6,17.0,30.22,SW,226,8.0,15.0,87,0.00,,,0.00,weatherlink.com 1.10,2013-02-22 06:25:00,
2013-02-22 00:40:00,20.6,17.0,30.21,SW,227,12.0,16.0,87,0.00,,,0.00,weatherlink.com 1.10,2013-02-22 06:40:00,
2013-02-22 00:55:00,20.5,17.0,30.19,SSW,212,8.0,16.0,87,0.00,,,0.00,weatherlink.com 1.10,2013-02-22 06:55:00,
2013-02-22 01:10:00,20.5,17.0,30.19,SW,217,14.0,17.0,87,0.00,,,0.00,weatherlink.com 1.10,2013-02-22 07:10:00,
2013-02-22 01:25:00,20.6,17.0,30.18,SW,231,12.0,16.0,87,0.00,,,0.00,weatherlink.com 1.10,2013-02-22 07:25:00,
2013-02-22 01:40:00,20.6,17.0,30.17,SW,233,8.0,16.0,87,0.00,,,0.00,weatherlink.com 1.10,2013-02-22 07:40:00,
2013-02-22 01:55:00,20.7,17.0,30.17,SW,225,10.0,15.0,87,0.00,,,0.00,weatherlink.com 1.10,2013-02-22 07:55:00,
2013-02-22 02:10:00,20.7,17.0,30.16,SW,228,9.0,14.0,87,0.00,,,0.00,weatherlink.com 1.10,2013-02-22 08:10:00,
2013-02-22 02:25:00,20.6,17.0,30.14,SW,229,13.0,16.0,86,0.00,,,0.00,weatherlink.com 1.10,2013-02-22 08:25:00,
2013-02-22 02:40:00,20.3,18.0,30.14,SW,224,15.0,16.0,89,0.00,,,0.00,weatherlink.com 1.10,2013-02-22 08:40:00,
2013-02-22 02:56:00,19.9,18.0,30.13,SW,217,7.0,14.0,91,0.00,,,0.00,weatherlink.com 1.10,2013-02-22 08:56:00,
2013-02-22 03:10:00,19.7,18.0,30.13,SSW,201,11.0,13.0,92,0.00,,,0.00,weatherlink.com 1.10,2013-02-22 09:10:00,
2013-02-22 03:25:00,19.7,18.0,30.12,SSW,210,7.0,12.0,93,0.00,,,0.00,weatherlink.com 1.10,2013-02-22 09:25:00,
2013-02-22 03:40:00,19.6,18.0,30.11,SW,217,7.0,12.0,93,0.00,,,0.00,weatherlink.com 1.10,2013-02-22 09:40:00,
2013-02-22 03:56:00,19.6,18.0,30.12,SW,225,7.0,12.0,93,0.00,,,0.00,weatherlink.com 1.10,2013-02-22 09:56:00,
2013-02-22 04:10:00,19.5,18.0,30.11,SSW,200,7.0,9.0,93,0.00,,,0.00,weatherlink.com 1.10,2013-02-22 10:10:00,
2013-02-22 04:25:00,19.6,18.0,30.11,SSW,202,6.0,9.0,93,0.00,,,0.00,weatherlink.com 1.10,2013-02-22 10:25:00,
2013-02-22 04:40:00,19.5,18.0,30.10,SSW,207,8.0,11.0,93,0.00,,,0.00,weatherlink.com 1.10,2013-02-22 10:40:00,
2013-02-22 04:55:00,19.4,18.0,30.10,SW,227,7.0,12.0,94,0.00,,,0.00,weatherlink.com 1.10,2013-02-22 10:55:00,
2013-02-22 05:10:00,19.5,18.0,30.09,SSW,210,8.0,10.0,94,0.00,,,0.00,weatherlink.com 1.10,2013-02-22 11:10:00,
2013-02-22 05:25:00,19.4,18.0,30.09,SSW,212,7.0,11.0,94,0.00,,,0.00,weatherlink.com 1.10,2013-02-22 11:25:00,
2013-02-22 05:40:00,19.5,18.0,30.09,SSW,210,6.0,11.0,94,0.00,,,0.00,weatherlink.com 1.10,2013-02-22 11:40:00,
2013-02-22 05:55:00,19.5,18.0,30.09,SSW,207,9.0,11.0,94,0.00,,,0.00,weatherlink.com 1.10,2013-02-22 11:55:00,
2013-02-22 06:10:00,19.5,18.0,30.09,SW,217,8.0,11.0,94,0.00,,,0.00,weatherlink.com 1.10,2013-02-22 12:10:00,
2013-02-22 06:26:00,19.5,18.0,30.09,SSW,204,8.0,10.0,94,0.00,,,0.00,weatherlink.com 1.10,2013-02-22 12:26:00,
2013-02-22 06:41:00,19.5,18.0,30.08,SSW,203,7.0,11.0,94,0.00,,,0.00,weatherlink.com 1.10,2013-02-22 12:41:00,
2013-02-22 06:56:00,19.5,18.0,30.08,SSW,207,7.0,12.0,94,0.00,,,0.00,weatherlink.com 1.10,2013-02-22 12:56:00,
2013-02-22 07:11:00,19.5,18.0,30.07,SW,217,8.0,10.0,94,0.00,,,0.00,weatherlink.com 1.10,2013-02-22 13:11:00,
2013-02-22 07:26:00,19.5,18.0,30.07,SW,214,9.0,11.0,94,0.00,,,0.00,weatherlink.com 1.10,2013-02-22 13:26:00,
2013-02-22 07:41:00,19.5,18.0,30.07,SW,217,9.0,13.0,93,0.00,,,0.00,weatherlink.com 1.10,2013-02-22 13:41:00,
2013-02-22 07:56:00,19.6,18.0,30.07,SSW,211,9.0,11.0,93,0.00,,,0.00,weatherlink.com 1.10,2013-02-22 13:56:00,
2013-02-22 08:11:00,19.7,18.0,30.07,SW,233,8.0,12.0,93,0.00,,,0.00,weatherlink.com 1.10,2013-02-22 14:11:00,
2013-02-22 08:26:00,19.8,18.0,30.06,SSW,212,7.0,13.0,93,0.00,,,0.00,weatherlink.com 1.10,2013-02-22 14:26:00,
2013-02-22 08:41:00,20.1,18.0,30.06,SSW,212,9.0,12.0,93,0.00,,,0.00,weatherlink.com 1.10,2013-02-22 14:41:00,
2013-02-22 08:56:00,20.4,19.0,30.05,SW,219,8.0,12.0,93,0.00,,,0.00,weatherlink.com 1.10,2013-02-22 14:56:00,
2013-02-22 09:11:00,20.6,19.0,30.05,SSW,212,8.0,11.0,93,0.00,,,0.00,weatherlink.com 1.10,2013-02-22 15:11:00,
2013-02-22 09:26:00,20.9,19.0,30.05,SW,217,8.0,12.0,93,0.00,,,0.00,weatherlink.com 1.10,2013-02-22 15:26:00,
2013-02-22 09:41:00,21.2,19.0,30.05,SW,228,9.0,12.0,92,0.00,,,0.00,weatherlink.com 1.10,2013-02-22 15:41:00,
2013-02-22 09:56:00,21.4,20.0,30.04,SSW,194,4.0,9.0,92,0.00,,,0.00,weatherlink.com 1.10,2013-02-22 15:56:00,
2013-02-22 10:11:00,21.7,20.0,30.04,SW,217,8.0,10.0,92,0.00,,,0.00,weatherlink.com 1.10,2013-02-22 16:11:00,
2013-02-22 10:26:00,22.0,20.0,30.04,SW,222,7.0,10.0,92,0.00,,,0.00,weatherlink.com 1.10,2013-02-22 16:26:00,
2013-02-22 10:41:00,22.4,20.0,30.03,SSW,204,7.0,11.0,91,0.00,,,0.00,weatherlink.com 1.10,2013-02-22 16:41:00,
2013-02-22 10:56:00,22.7,21.0,30.03,SW,230,11.0,12.0,91,0.00,,,0.00,weatherlink.com 1.10,2013-02-22 16:56:00,
2013-02-22 11:11:00,23.4,21.0,30.03,SSW,207,7.0,11.0,91,0.00,,,0.00,weatherlink.com 1.10,2013-02-22 17:11:00,
2013-02-22 11:26:00,23.7,21.0,30.03,SSW,203,7.0,11.0,89,0.00,,,0.00,weatherlink.com 1.10,2013-02-22 17:26:00,
2013-02-22 11:41:00,23.9,21.0,30.02,SSW,195,7.0,10.0,88,0.00,,,0.00,weatherlink.com 1.10,2013-02-22 17:41:00,
2013-02-22 11:56:00,24.2,21.0,30.02,SW,224,9.0,9.0,88,0.00,,,0.00,weatherlink.com 1.10,2013-02-22 17:56:00,
2013-02-22 12:11:00,24.7,21.0,30.01,SW,222,6.0,9.0,86,0.00,,,0.00,weatherlink.com 1.10,2013-02-22 18:11:00,
2013-02-22 12:27:00,25.2,21.0,30.01,SW,217,9.0,10.0,85,0.00,,,0.00,weatherlink.com 1.10,2013-02-22 18:27:00,
2013-02-22 12:42:00,25.6,21.0,30.00,SSW,203,6.0,11.0,84,0.00,,,0.00,weatherlink.com 1.10,2013-02-22 18:42:00,
2013-02-22 12:57:00,25.8,21.0,30.00,SW,216,7.0,9.0,83,0.00,,,0.00,weatherlink.com 1.10,2013-02-22 18:57:00,
2013-02-22 13:11:00,25.7,21.0,29.99,SSW,212,7.0,9.0,83,0.00,,,0.00,weatherlink.com 1.10,2013-02-22 19:11:00,
2013-02-22 13:26:00,25.9,21.0,29.99,SSW,204,3.0,9.0,83,0.00,,,0.00,weatherlink.com 1.10,2013-02-22 19:26:00,
2013-02-22 13:57:00,26.5,21.0,29.98,South,177,4.0,8.0,81,0.00,,,0.00,weatherlink.com 1.10,2013-02-22 19:57:00,
2013-02-22 14:12:00,26.5,21.0,29.98,SSW,194,2.0,6.0,80,0.00,,,0.00,weatherlink.com 1.10,2013-02-22 20:12:00,
2013-02-22 14:27:00,26.5,21.0,29.98,South,190,3.0,6.0,78,0.00,,,0.00,weatherlink.com 1.10,2013-02-22 20:27:00,
2013-02-22 14:42:00,26.5,21.0,29.98,SE,146,2.0,4.0,78,0.00,,,0.00,weatherlink.com 1.10,2013-02-22 20:42:00,
2013-02-22 14:57:00,26.9,21.0,29.98,SSE,158,0.0,3.0,78,0.00,,,0.00,weatherlink.com 1.10,2013-02-22 20:57:00,
2013-02-22 15:12:00,26.8,21.0,29.98,SSE,162,1.0,4.0,77,0.00,,,0.00,weatherlink.com 1.10,2013-02-22 21:12:00,
2013-02-22 15:27:00,26.8,21.0,29.98,SSW,200,3.0,3.0,78,0.00,,,0.00,weatherlink.com 1.10,2013-02-22 21:27:00,
2013-02-22 15:42:00,26.4,20.0,29.98,South,172,2.0,4.0,78,0.00,,,0.00,weatherlink.com 1.10,2013-02-22 21:42:00,
2013-02-22 15:58:00,26.4,21.0,29.98,ESE,121,1.0,4.0,79,0.00,,,0.00,weatherlink.com 1.10,2013-02-22 21:58:00,
2013-02-22 16:27:00,26.3,21.0,29.99,SSE,167,5.0,8.0,79,0.00,,,0.00,weatherlink.com 1.10,2013-02-22 22:27:00,
2013-02-22 16:42:00,26.1,20.0,29.99,SE,140,5.0,6.0,79,0.00,,,0.00,weatherlink.com 1.10,2013-02-22 22:42:00,
2013-02-22 16:57:00,26.0,20.0,29.99,SE,131,4.0,7.0,79,0.00,,,0.00,weatherlink.com 1.10,2013-02-22 22:57:00,
2013-02-22 17:12:00,25.8,20.0,29.99,SE,132,1.0,5.0,79,0.00,,,0.00,weatherlink.com 1.10,2013-02-22 23:12:00,
2013-02-22 17:27:00,25.7,20.0,30.00,SE,132,3.0,7.0,78,0.00,,,0.00,weatherlink.com 1.10,2013-02-22 23:27:00,
2013-02-22 17:42:00,25.5,20.0,30.00,South,176,2.0,7.0,78,0.00,,,0.00,weatherlink.com 1.10,2013-02-22 23:42:00,
2013-02-22 17:57:00,25.3,20.0,30.00,ESE,111,2.0,7.0,79,0.00,,,0.00,weatherlink.com 1.10,2013-02-22 23:57:00,
2013-02-22 18:12:00,25.3,20.0,30.00,ESE,120,3.0,7.0,80,0.00,,,0.00,weatherlink.com 1.10,2013-02-23 00:12:00,
2013-02-22 18:27:00,25.1,20.0,30.00,ESE,117,3.0,6.0,82,0.00,,,0.00,weatherlink.com 1.10,2013-02-23 00:27:00,
2013-02-22 18:42:00,25.0,20.0,30.00,SE,128,1.0,5.0,82,0.00,,,0.00,weatherlink.com 1.10,2013-02-23 00:42:00,
2013-02-22 18:57:00,24.8,20.0,30.00,East,93,2.0,4.0,83,0.00,,,0.00,weatherlink.com 1.10,2013-02-23 00:57:00,
2013-02-22 19:12:00,24.6,20.0,30.00,ESE,108,1.0,5.0,84,0.00,,,0.00,weatherlink.com 1.10,2013-02-23 01:12:00,
2013-02-22 19:27:00,24.4,21.0,30.00,East,101,2.0,6.0,86,0.00,,,0.00,weatherlink.com 1.10,2013-02-23 01:27:00,
2013-02-22 19:42:00,24.1,21.0,30.00,East,93,1.0,5.0,87,0.00,,,0.00,weatherlink.com 1.10,2013-02-23 01:42:00,
2013-02-22 19:57:00,23.9,21.0,29.99,ESE,108,2.0,4.0,88,0.00,,,0.00,weatherlink.com 1.10,2013-02-23 01:57:00,
2013-02-22 20:12:00,23.8,21.0,29.99,East,93,2.0,4.0,90,0.00,,,0.00,weatherlink.com 1.10,2013-02-23 02:12:00,
2013-02-22 20:27:00,23.6,21.0,29.98,ESE,104,1.0,4.0,91,0.00,,,0.00,weatherlink.com 1.10,2013-02-23 02:27:00,
2013-02-22 20:42:00,23.5,21.0,29.98,ESE,118,2.0,4.0,91,0.00,,,0.00,weatherlink.com 1.10,2013-02-23 02:42:00,
2013-02-22 20:57:00,23.6,22.0,29.98,East,101,1.0,4.0,92,0.00,,,0.00,weatherlink.com 1.10,2013-02-23 02:57:00,
2013-02-22 21:12:00,23.5,22.0,29.98,ESE,105,0.0,4.0,92,0.00,,,0.00,weatherlink.com 1.10,2013-02-23 03:12:00,
2013-02-22 21:27:00,23.5,22.0,29.97,East,99,3.0,4.0,92,0.00,,,0.00,weatherlink.com 1.10,2013-02-23 03:27:00,
2013-02-22 21:42:00,23.4,22.0,29.97,East,98,3.0,5.0,92,0.00,,,0.00,weatherlink.com 1.10,2013-02-23 03:42:00,
2013-02-22 21:57:00,23.2,21.0,29.97,ESE,111,3.0,4.0,92,0.00,,,0.00,weatherlink.com 1.10,2013-02-23 03:57:00,
2013-02-22 22:12:00,22.9,21.0,29.97,East,98,2.0,3.0,92,0.00,,,0.00,weatherlink.com 1.10,2013-02-23 04:12:00,
2013-02-22 22:27:00,22.8,21.0,29.97,ESE,103,1.0,3.0,92,0.00,,,0.00,weatherlink.com 1.10,2013-02-23 04:27:00,
2013-02-22 22:42:00,22.8,21.0,29.96,East,98,2.0,5.0,92,0.00,,,0.00,weatherlink.com 1.10,2013-02-23 04:42:00,
2013-02-22 22:57:00,22.8,21.0,29.97,East,81,1.0,4.0,92,0.00,,,0.00,weatherlink.com 1.10,2013-02-23 04:57:00,
2013-02-22 23:12:00,22.6,20.0,29.96,ENE,68,2.0,3.0,91,0.00,,,0.00,weatherlink.com 1.10,2013-02-23 05:12:00,
2013-02-22 23:27:00,22.1,20.0,29.96,ENE,77,2.0,2.0,92,0.00,,,0.00,weatherlink.com 1.10,2013-02-23 05:27:00,
2013-02-22 23:42:00,22.3,20.0,29.96,ESE,105,1.0,4.0,92,0.00,,,0.00,weatherlink.com 1.10,2013-02-23 05:42:00,
2013-02-22 23:58:00,22.3,20.0,29.96,East,93,0.0,2.0,92,0.00,,,0.00,weatherlink.com 1.10,2013-02-23 05:58:00,